When you browse on this site, cookies collect data to enhance your experience and personalize the content and advertising you see.
Visit our Privacy Policy to learn more. By continuing to use the site, you agree to this use of cookies and data.
  • In Hungary
  • List of Countries
  • For 7 days
  • Water Temperature
  • Weather Map
  • News
  • Weather Widgets
  • user-avatar
    Login

    Hourly Weather Kuninskiy

    Today, 21 January, Tuesday

    Time Temperature Precipitation Wind Pressure Humidity
    00:00 -1°C° 0 mm 5 mps 746 mmHg 86%
    01:00 -1°C° 0 mm 5 mps 745 mmHg 88%
    02:00 -2°C° 0 mm 6 mps 744 mmHg 88%
    03:00 -1°C° 0.4 mm 6 mps 743 mmHg 88%
    04:00 -1°C° 0.4 mm 6 mps 742 mmHg 88%
    05:00 -1°C° 0.4 mm 7 mps 741 mmHg 87%
    06:00 0°C° 0.1 mm 7 mps 740 mmHg 88%
    07:00 0°C° 0.1 mm 7 mps 739 mmHg 88%
    08:00 0°C° 0 mm 7 mps 739 mmHg 85%
    09:00 +1°C° 0.6 mm 6 mps 738 mmHg 86%
    10:00 +2°C° 0.6 mm 6 mps 738 mmHg 87%
    11:00 +2°C° 0.6 mm 6 mps 737 mmHg 88%
    12:00 +2°C° 0.6 mm 6 mps 737 mmHg 89%
    13:00 +3°C° 0.6 mm 6 mps 736 mmHg 89%
    14:00 +3°C° 0.6 mm 5 mps 735 mmHg 90%
    15:00 +3°C° 0.9 mm 6 mps 735 mmHg 90%
    16:00 +2°C° 0.9 mm 6 mps 734 mmHg 90%
    17:00 +2°C° 0.9 mm 6 mps 734 mmHg 90%
    18:00 +2°C° 0.1 mm 6 mps 734 mmHg 85%
    19:00 0°C° 0.1 mm 7 mps 735 mmHg 79%
    20:00 -1°C° 0.1 mm 7 mps 735 mmHg 73%
    21:00 -1°C° 0 mm 7 mps 735 mmHg 73%
    22:00 -2°C° 0 mm 7 mps 735 mmHg 72%
    23:00 -2°C° 0 mm 7 mps 735 mmHg 72%

    Tomorrow, 22 January, Wednesday

    Time Temperature Precipitation Wind Pressure Humidity
    00:00 -3°C° 0 mm 7 mps 735 mmHg 75%
    01:00 -3°C° 0 mm 6 mps 735 mmHg 78%
    02:00 -3°C° 0 mm 6 mps 735 mmHg 82%
    03:00 -3°C° 0.1 mm 6 mps 734 mmHg 82%
    04:00 -3°C° 0.1 mm 6 mps 733 mmHg 83%
    05:00 -3°C° 0.1 mm 6 mps 732 mmHg 84%
    06:00 -2°C° 0.3 mm 5 mps 731 mmHg 82%
    07:00 -2°C° 0.3 mm 5 mps 731 mmHg 81%
    08:00 -2°C° 0.3 mm 5 mps 731 mmHg 79%
    09:00 -2°C° 0.2 mm 5 mps 730 mmHg 76%
    10:00 -2°C° 0.2 mm 5 mps 730 mmHg 72%
    11:00 -3°C° 0.2 mm 6 mps 730 mmHg 69%
    12:00 -2°C° 0 mm 5 mps 730 mmHg 69%
    13:00 -2°C° 0 mm 5 mps 731 mmHg 70%
    14:00 -4°C° 0 mm 5 mps 731 mmHg 70%
    15:00 -4°C° 0 mm 5 mps 731 mmHg 72%
    16:00 -5°C° 0 mm 5 mps 732 mmHg 73%
    17:00 -5°C° 0 mm 5 mps 732 mmHg 75%
    18:00 -5°C° 0 mm 5 mps 733 mmHg 76%
    19:00 -5°C° 0 mm 6 mps 733 mmHg 76%
    20:00 -5°C° 0 mm 6 mps 734 mmHg 77%
    21:00 -6°C° 0.1 mm 6 mps 734 mmHg 75%
    22:00 -6°C° 0.1 mm 6 mps 735 mmHg 73%
    23:00 -6°C° 0.1 mm 6 mps 735 mmHg 72%

    Day after tomorrow, 23 January, Thursday

    Time Temperature Precipitation Wind Pressure Humidity
    00:00 -8°C° 0 mm 6 mps 736 mmHg 70%
    01:00 -8°C° 0 mm 6 mps 737 mmHg 68%
    02:00 -8°C° 0 mm 6 mps 738 mmHg 67%
    03:00 -9°C° 0 mm 6 mps 738 mmHg 67%
    04:00 -9°C° 0 mm 6 mps 738 mmHg 67%
    05:00 -9°C° 0 mm 7 mps 739 mmHg 67%
    06:00 -9°C° 0 mm 6 mps 739 mmHg 67%
    07:00 -9°C° 0 mm 6 mps 740 mmHg 68%
    08:00 -9°C° 0 mm 6 mps 740 mmHg 68%
    09:00 -8°C° 0 mm 6 mps 740 mmHg 63%
    10:00 -8°C° 0 mm 6 mps 740 mmHg 58%
    11:00 -6°C° 0 mm 6 mps 741 mmHg 53%
    12:00 -6°C° 0 mm 6 mps 741 mmHg 57%
    13:00 -6°C° 0 mm 6 mps 741 mmHg 61%
    14:00 -6°C° 0 mm 6 mps 741 mmHg 65%
    15:00 -8°C° 0 mm 6 mps 742 mmHg 63%
    16:00 -7°C° 0 mm 5 mps 742 mmHg 61%
    17:00 -7°C° 0 mm 5 mps 743 mmHg 59%
    18:00 -8°C° 0 mm 4 mps 743 mmHg 60%
    19:00 -7°C° 0 mm 3 mps 743 mmHg 61%
    20:00 -7°C° 0 mm 3 mps 744 mmHg 62%
    21:00 -7°C° 0 mm 3 mps 744 mmHg 64%
    22:00 -6°C° 0 mm 2 mps 744 mmHg 66%
    23:00 -6°C° 0 mm 2 mps 743 mmHg 68%

    24 January, Friday

    Time Temperature Precipitation Wind Pressure Humidity
    00:00 -6°C° 0 mm 3 mps 743 mmHg 72%
    01:00 -6°C° 0 mm 3 mps 743 mmHg 77%
    02:00 -5°C° 0 mm 3 mps 742 mmHg 81%
    03:00 -5°C° 0.1 mm 3 mps 742 mmHg 84%
    04:00 -5°C° 0.1 mm 4 mps 741 mmHg 87%
    05:00 -4°C° 0.1 mm 4 mps 740 mmHg 90%
    06:00 -4°C° 0.2 mm 4 mps 740 mmHg 88%
    07:00 -4°C° 0.2 mm 4 mps 739 mmHg 87%
    08:00 -4°C° 0.2 mm 5 mps 739 mmHg 86%
    09:00 -3°C° 0 mm 4 mps 738 mmHg 87%
    10:00 -2°C° 0 mm 4 mps 738 mmHg 88%
    11:00 -2°C° 0 mm 4 mps 738 mmHg 89%
    12:00 -1°C° 0 mm 4 mps 738 mmHg 88%
    13:00 0°C° 0 mm 4 mps 738 mmHg 87%
    14:00 0°C° 0 mm 5 mps 738 mmHg 86%
    15:00 0°C° 0 mm 5 mps 738 mmHg 87%
    16:00 0°C° 0 mm 5 mps 738 mmHg 87%
    17:00 0°C° 0 mm 4 mps 738 mmHg 87%
    18:00 -1°C° 0 mm 4 mps 738 mmHg 90%
    19:00 -1°C° 0 mm 4 mps 738 mmHg 92%
    20:00 -1°C° 0 mm 4 mps 738 mmHg 95%
    21:00 0°C° 0.1 mm 3 mps 738 mmHg 96%
    22:00 0°C° 0.1 mm 3 mps 738 mmHg 96%
    23:00 0°C° 0.1 mm 3 mps 738 mmHg 97%

    25 January, Saturday

    Time Temperature Precipitation Wind Pressure Humidity
    00:00 +1°C° 0 mm 2 mps 739 mmHg 97%
    01:00 +1°C° 0 mm 2 mps 739 mmHg 97%
    02:00 +1°C° 0 mm 2 mps 739 mmHg 98%
    03:00 +2°C° 0 mm 1 mps 739 mmHg 98%
    04:00 +2°C° 0 mm 1 mps 739 mmHg 98%
    05:00 +2°C° 0 mm 1 mps 739 mmHg 98%
    06:00 +2°C° 0.1 mm 1 mps 739 mmHg 98%
    07:00 +2°C° 0.1 mm 1 mps 739 mmHg 98%
    08:00 +2°C° 0.1 mm 1 mps 739 mmHg 98%
    09:00 +2°C° 0.1 mm 2 mps 739 mmHg 97%
    10:00 +2°C° 0.1 mm 2 mps 739 mmHg 96%
    11:00 +2°C° 0.1 mm 2 mps 739 mmHg 95%
    12:00 +2°C° 0.1 mm 2 mps 739 mmHg 95%
    13:00 +2°C° 0.1 mm 2 mps 739 mmHg 94%
    14:00 +1°C° 0.1 mm 3 mps 739 mmHg 93%
    15:00 +1°C° 0 mm 3 mps 739 mmHg 93%
    16:00 +1°C° 0 mm 3 mps 739 mmHg 93%
    17:00 0°C° 0 mm 3 mps 739 mmHg 93%
    18:00 0°C° 0 mm 3 mps 740 mmHg 92%
    19:00 +1°C° 0 mm 2 mps 740 mmHg 92%
    20:00 -1°C° 0 mm 2 mps 740 mmHg 92%
    21:00 -1°C° 0 mm 2 mps 740 mmHg 93%
    22:00 -1°C° 0 mm 3 mps 740 mmHg 93%
    23:00 -2°C° 0 mm 3 mps 741 mmHg 94%

    26 January, Sunday

    Time Temperature Precipitation Wind Pressure Humidity
    00:00 -2°C° 0 mm 3 mps 741 mmHg 94%
    01:00 -2°C° 0 mm 3 mps 741 mmHg 93%
    02:00 -2°C° 0 mm 3 mps 741 mmHg 92%
    03:00 -2°C° 0 mm 3 mps 741 mmHg 91%
    04:00 -2°C° 0 mm 3 mps 741 mmHg 91%
    05:00 -3°C° 0 mm 2 mps 741 mmHg 90%
    06:00 -3°C° 0 mm 2 mps 741 mmHg 90%
    07:00 -3°C° 0 mm 2 mps 741 mmHg 90%
    08:00 -3°C° 0 mm 2 mps 742 mmHg 91%
    09:00 -2°C° 0 mm 2 mps 742 mmHg 90%
    10:00 -1°C° 0 mm 2 mps 742 mmHg 89%
    11:00 -1°C° 0 mm 3 mps 742 mmHg 88%
    12:00 -1°C° 0 mm 3 mps 742 mmHg 89%
    13:00 0°C° 0 mm 3 mps 741 mmHg 90%
    14:00 0°C° 0 mm 3 mps 741 mmHg 91%
    15:00 0°C° 0 mm 3 mps 741 mmHg 93%
    16:00 +1°C° 0 mm 2 mps 741 mmHg 95%
    17:00 +1°C° 0 mm 2 mps 741 mmHg 97%
    18:00 +1°C° 0 mm 2 mps 741 mmHg 96%
    19:00 +1°C° 0 mm 2 mps 741 mmHg 95%
    20:00 +1°C° 0 mm 2 mps 741 mmHg 94%
    21:00 -1°C° 0 mm 2 mps 741 mmHg 93%
    22:00 -1°C° 0 mm 2 mps 741 mmHg 93%
    23:00 -1°C° 0 mm 2 mps 741 mmHg 92%
    Show more